Time,TemperatureF,DewpointF,PressureIn,WindDirection,WindDirectionDegrees,WindSpeedMPH,WindSpeedGustMPH,Humidity,HourlyPrecipIn,Conditions,Clouds,dailyrainin,SoftwareType,DateUTC
2017-02-20 00:00:00,42.4,41.3,30.29,SSW,203,0.0,0.0,96,0.00,,---,0.00,VWS V15.00,2017-02-20 05:00:00,
2017-02-20 00:05:00,42.4,41.3,30.29,SSW,203,0.0,0.0,96,0.00,,---,0.00,VWS V15.00,2017-02-20 05:05:00,
2017-02-20 00:10:00,42.4,41.3,30.29,SSW,203,0.0,0.0,96,0.00,,---,0.00,VWS V15.00,2017-02-20 05:10:00,
2017-02-20 00:15:00,42.3,41.2,30.29,SSW,203,0.0,0.0,96,0.00,,---,0.00,VWS V15.00,2017-02-20 05:15:00,
2017-02-20 00:20:00,42.4,41.3,30.29,SSW,203,0.0,0.0,96,0.00,,---,0.00,VWS V15.00,2017-02-20 05:20:00,
2017-02-20 00:25:00,42.3,41.2,30.29,SSW,203,0.0,0.0,96,0.00,,---,0.00,VWS V15.00,2017-02-20 05:25:00,
2017-02-20 00:30:00,42.2,41.1,30.29,SSW,203,0.0,0.0,96,0.00,,---,0.00,VWS V15.00,2017-02-20 05:30:00,
2017-02-20 00:35:00,42.0,40.9,30.29,SSW,203,0.0,0.0,96,0.00,,---,0.00,VWS V15.00,2017-02-20 05:35:00,
2017-02-20 00:40:00,41.8,40.8,30.29,SSW,203,0.0,0.0,96,0.00,,---,0.00,VWS V15.00,2017-02-20 05:40:00,
2017-02-20 00:45:00,41.8,40.8,30.29,SSW,203,0.0,0.0,96,0.00,,---,0.00,VWS V15.00,2017-02-20 05:45:00,
2017-02-20 00:50:00,41.7,40.7,30.29,SSW,203,0.0,0.0,96,0.00,,---,0.00,VWS V15.00,2017-02-20 05:50:00,
2017-02-20 00:55:00,41.7,40.7,30.29,SSW,203,0.0,0.0,96,0.00,,---,0.00,VWS V15.00,2017-02-20 05:55:00,
2017-02-20 01:00:00,41.5,40.5,30.29,SSW,203,0.0,0.0,96,0.00,,---,0.00,VWS V15.00,2017-02-20 06:00:00,
2017-02-20 01:05:00,41.3,40.2,30.29,SSW,203,0.0,0.0,96,0.00,,---,0.00,VWS V15.00,2017-02-20 06:05:00,
2017-02-20 01:09:00,41.3,40.2,30.29,SSW,203,0.0,0.0,96,0.00,,---,0.00,VWS V15.00,2017-02-20 06:09:00,
2017-02-20 01:14:00,41.4,40.3,30.29,SSW,203,0.0,0.0,96,0.00,,---,0.00,VWS V15.00,2017-02-20 06:14:00,
2017-02-20 01:19:00,41.2,40.2,30.29,SSW,203,0.0,0.0,96,0.00,,---,0.00,VWS V15.00,2017-02-20 06:19:00,
2017-02-20 01:24:00,40.9,39.8,30.30,SSW,203,0.0,0.0,96,0.00,,---,0.00,VWS V15.00,2017-02-20 06:24:00,
2017-02-20 01:29:00,40.8,39.8,30.30,SSW,203,0.0,0.0,96,0.00,,---,0.00,VWS V15.00,2017-02-20 06:29:00,
2017-02-20 01:34:00,40.6,39.5,30.29,SSW,203,0.0,0.0,96,0.00,,---,0.00,VWS V15.00,2017-02-20 06:34:00,
2017-02-20 01:39:00,40.3,39.0,30.29,SSW,203,0.0,0.0,95,0.00,,---,0.00,VWS V15.00,2017-02-20 06:39:00,
2017-02-20 01:44:00,40.0,38.7,30.29,SSW,203,0.0,0.0,95,0.00,,---,0.00,VWS V15.00,2017-02-20 06:44:00,
2017-02-20 01:49:00,39.7,38.4,30.30,SSW,203,0.0,0.0,95,0.00,,---,0.00,VWS V15.00,2017-02-20 06:49:00,
2017-02-20 01:54:00,39.5,38.2,30.30,SSW,203,0.0,0.0,95,0.00,,---,0.00,VWS V15.00,2017-02-20 06:54:00,
2017-02-20 01:59:00,39.5,38.5,30.29,SSW,203,0.0,0.0,96,0.00,,---,0.00,VWS V15.00,2017-02-20 06:59:00,
2017-02-20 02:04:00,39.5,38.5,30.29,SSW,203,0.0,0.0,96,0.00,,---,0.00,VWS V15.00,2017-02-20 07:04:00,
2017-02-20 02:09:00,39.4,38.4,30.29,SSW,203,0.0,0.0,96,0.00,,---,0.00,VWS V15.00,2017-02-20 07:09:00,
2017-02-20 02:14:00,39.4,38.4,30.29,SSW,203,0.0,0.0,96,0.00,,---,0.00,VWS V15.00,2017-02-20 07:14:00,
2017-02-20 02:19:00,39.7,38.7,30.29,SSW,203,0.0,0.0,96,0.00,,---,0.00,VWS V15.00,2017-02-20 07:19:00,
2017-02-20 02:24:00,39.6,38.6,30.29,SSW,203,0.0,0.0,96,0.00,,---,0.00,VWS V15.00,2017-02-20 07:24:00,
2017-02-20 02:29:00,39.2,38.2,30.29,SSW,203,0.0,0.0,96,0.00,,---,0.00,VWS V15.00,2017-02-20 07:29:00,
2017-02-20 02:34:00,39.1,38.1,30.29,SSW,203,0.0,0.0,96,0.00,,---,0.00,VWS V15.00,2017-02-20 07:34:00,
2017-02-20 02:39:00,38.9,37.9,30.29,SSW,203,0.0,0.0,96,0.00,,---,0.00,VWS V15.00,2017-02-20 07:39:00,
2017-02-20 02:44:00,38.6,37.3,30.29,SSW,203,0.0,0.0,95,0.00,,---,0.00,VWS V15.00,2017-02-20 07:44:00,
2017-02-20 02:49:00,38.3,37.0,30.29,SSW,203,0.0,0.0,95,0.00,,---,0.00,VWS V15.00,2017-02-20 07:49:00,
2017-02-20 02:54:00,38.1,36.8,30.29,SSW,203,0.0,0.0,95,0.00,,---,0.00,VWS V15.00,2017-02-20 07:54:00,
2017-02-20 02:59:00,38.0,36.7,30.29,SSW,203,0.0,0.0,95,0.00,,---,0.00,VWS V15.00,2017-02-20 07:59:00,
2017-02-20 03:04:00,37.9,36.9,30.29,SSW,203,0.0,0.0,96,0.00,,---,0.00,VWS V15.00,2017-02-20 08:04:00,
2017-02-20 03:09:00,37.8,36.8,30.29,SSW,203,0.0,0.0,96,0.00,,---,0.00,VWS V15.00,2017-02-20 08:09:00,
2017-02-20 03:14:00,37.7,36.7,30.29,SSW,203,0.0,0.0,96,0.00,,---,0.00,VWS V15.00,2017-02-20 08:14:00,
2017-02-20 03:19:00,37.7,36.7,30.29,SSW,203,0.0,0.0,96,0.00,,---,0.00,VWS V15.00,2017-02-20 08:19:00,
2017-02-20 03:24:00,37.5,36.5,30.29,SSW,203,0.0,0.0,96,0.00,,---,0.00,VWS V15.00,2017-02-20 08:24:00,
2017-02-20 03:29:00,37.3,36.3,30.29,SSW,203,0.0,0.0,96,0.00,,---,0.00,VWS V15.00,2017-02-20 08:29:00,
2017-02-20 03:34:00,37.0,36.0,30.29,West,281,0.0,0.0,96,0.00,,---,0.00,VWS V15.00,2017-02-20 08:34:00,
2017-02-20 03:39:00,36.7,35.7,30.29,West,281,0.0,0.0,96,0.00,,---,0.00,VWS V15.00,2017-02-20 08:39:00,
2017-02-20 03:44:00,36.6,35.6,30.29,West,281,0.0,0.0,96,0.00,,---,0.00,VWS V15.00,2017-02-20 08:44:00,
2017-02-20 03:49:00,36.5,35.5,30.29,West,281,0.0,0.0,96,0.00,,---,0.00,VWS V15.00,2017-02-20 08:49:00,
2017-02-20 03:54:00,36.4,35.4,30.29,West,281,0.0,0.0,96,0.00,,---,0.00,VWS V15.00,2017-02-20 08:54:00,
2017-02-20 03:59:00,36.4,35.4,30.29,WNW,288,0.0,0.0,96,0.00,,---,0.00,VWS V15.00,2017-02-20 08:59:00,
2017-02-20 04:04:00,36.4,35.4,30.29,WNW,288,0.0,0.0,96,0.00,,---,0.00,VWS V15.00,2017-02-20 09:04:00,
2017-02-20 04:09:00,36.3,35.3,30.29,WNW,288,0.0,0.0,96,0.00,,---,0.00,VWS V15.00,2017-02-20 09:09:00,
2017-02-20 04:14:00,36.2,35.2,30.30,WNW,288,0.0,0.0,96,0.00,,---,0.00,VWS V15.00,2017-02-20 09:14:00,
2017-02-20 04:19:00,36.2,35.2,30.30,WNW,288,0.0,0.0,96,0.00,,---,0.00,VWS V15.00,2017-02-20 09:19:00,
2017-02-20 04:24:00,36.1,35.1,30.30,WNW,288,0.0,0.0,96,0.00,,---,0.00,VWS V15.00,2017-02-20 09:24:00,
2017-02-20 04:29:00,36.1,35.1,30.30,WNW,288,0.0,0.0,96,0.00,,---,0.00,VWS V15.00,2017-02-20 09:29:00,
2017-02-20 04:34:00,36.0,35.0,30.30,WNW,288,0.0,0.0,96,0.00,,---,0.00,VWS V15.00,2017-02-20 09:34:00,
2017-02-20 04:39:00,36.0,35.0,30.30,WNW,288,0.0,0.0,96,0.00,,---,0.00,VWS V15.00,2017-02-20 09:39:00,
2017-02-20 04:44:00,36.1,35.1,30.30,WNW,288,0.0,0.0,96,0.00,,---,0.00,VWS V15.00,2017-02-20 09:44:00,
2017-02-20 04:49:00,36.2,35.2,30.30,WNW,288,0.0,0.0,96,0.00,,---,0.00,VWS V15.00,2017-02-20 09:49:00,
2017-02-20 04:54:00,36.3,35.3,30.31,WNW,288,0.0,0.0,96,0.00,,---,0.00,VWS V15.00,2017-02-20 09:54:00,
2017-02-20 04:59:00,36.5,35.7,30.31,WNW,288,0.0,0.0,97,0.00,,---,0.00,VWS V15.00,2017-02-20 09:59:00,
2017-02-20 05:04:00,36.9,35.9,30.31,WNW,288,0.0,0.0,96,0.00,,---,0.00,VWS V15.00,2017-02-20 10:04:00,
2017-02-20 05:09:00,37.0,36.0,30.31,WNW,288,0.0,0.0,96,0.00,,---,0.00,VWS V15.00,2017-02-20 10:09:00,
2017-02-20 05:14:00,37.2,36.4,30.31,WNW,288,0.0,0.0,97,0.00,,---,0.00,VWS V15.00,2017-02-20 10:14:00,
2017-02-20 05:19:00,37.3,36.5,30.32,WNW,288,0.0,0.0,97,0.00,,---,0.00,VWS V15.00,2017-02-20 10:19:00,
2017-02-20 05:24:00,37.3,36.5,30.32,WNW,288,0.0,0.0,97,0.00,,---,0.00,VWS V15.00,2017-02-20 10:24:00,
2017-02-20 05:29:00,37.2,36.4,30.32,WNW,288,0.0,0.0,97,0.00,,---,0.00,VWS V15.00,2017-02-20 10:29:00,
2017-02-20 05:34:00,37.1,36.3,30.32,WNW,288,0.0,0.0,97,0.00,,---,0.00,VWS V15.00,2017-02-20 10:34:00,
2017-02-20 05:39:00,37.0,36.2,30.32,WNW,288,0.0,0.0,97,0.00,,---,0.00,VWS V15.00,2017-02-20 10:39:00,
2017-02-20 05:44:00,36.9,35.9,30.33,WNW,288,0.0,0.0,96,0.00,,---,0.00,VWS V15.00,2017-02-20 10:44:00,
2017-02-20 05:49:00,36.8,35.8,30.33,WNW,288,0.0,0.0,96,0.00,,---,0.00,VWS V15.00,2017-02-20 10:49:00,
2017-02-20 05:54:00,36.6,35.6,30.33,WNW,288,0.0,0.0,96,0.00,,---,0.00,VWS V15.00,2017-02-20 10:54:00,
2017-02-20 05:59:00,36.5,35.7,30.33,WNW,288,0.0,0.0,97,0.00,,---,0.00,VWS V15.00,2017-02-20 10:59:00,
2017-02-20 06:04:00,36.4,35.6,30.33,WNW,288,0.0,0.0,97,0.00,,---,0.00,VWS V15.00,2017-02-20 11:04:00,
2017-02-20 06:09:00,36.3,35.3,30.33,WNW,288,0.0,0.0,96,0.00,,---,0.00,VWS V15.00,2017-02-20 11:09:00,
2017-02-20 06:14:00,36.2,35.2,30.33,WNW,288,0.0,0.0,96,0.00,,---,0.00,VWS V15.00,2017-02-20 11:14:00,
2017-02-20 06:19:00,36.1,35.1,30.33,WNW,288,0.0,0.0,96,0.00,,---,0.00,VWS V15.00,2017-02-20 11:19:00,
2017-02-20 06:24:00,36.1,35.1,30.33,WNW,288,0.0,0.0,96,0.00,,---,0.00,VWS V15.00,2017-02-20 11:24:00,
2017-02-20 06:29:00,36.0,35.0,30.33,WNW,288,0.0,0.0,96,0.00,,---,0.00,VWS V15.00,2017-02-20 11:29:00,
2017-02-20 06:34:00,35.9,34.9,30.33,WNW,288,0.0,0.0,96,0.00,,---,0.00,VWS V15.00,2017-02-20 11:34:00,
2017-02-20 06:39:00,35.9,34.9,30.34,WNW,288,0.0,0.0,96,0.00,,---,0.00,VWS V15.00,2017-02-20 11:39:00,
2017-02-20 06:44:00,36.0,35.2,30.34,WNW,288,0.0,0.0,97,0.00,,---,0.00,VWS V15.00,2017-02-20 11:44:00,
2017-02-20 06:49:00,36.2,35.2,30.34,WNW,288,0.0,0.0,96,0.00,,---,0.00,VWS V15.00,2017-02-20 11:49:00,
2017-02-20 06:54:00,36.2,35.2,30.34,WNW,288,0.0,0.0,96,0.00,,---,0.00,VWS V15.00,2017-02-20 11:54:00,
2017-02-20 06:59:00,36.1,35.3,30.34,WNW,288,0.0,0.0,97,0.00,,---,0.00,VWS V15.00,2017-02-20 11:59:00,
2017-02-20 07:04:00,36.1,35.3,30.34,WNW,288,0.0,0.0,97,0.00,,---,0.00,VWS V15.00,2017-02-20 12:04:00,
2017-02-20 07:09:00,36.0,35.2,30.34,WNW,288,0.0,0.0,97,0.00,,---,0.00,VWS V15.00,2017-02-20 12:09:00,
2017-02-20 07:14:00,35.9,35.1,30.35,WNW,288,0.0,0.0,97,0.00,,---,0.00,VWS V15.00,2017-02-20 12:14:00,
2017-02-20 07:19:00,35.7,34.7,30.35,WNW,288,0.0,0.0,96,0.00,,---,0.00,VWS V15.00,2017-02-20 12:19:00,
2017-02-20 07:24:00,35.7,34.7,30.35,WNW,288,0.0,0.0,96,0.00,,---,0.00,VWS V15.00,2017-02-20 12:24:00,
2017-02-20 07:29:00,35.6,34.6,30.35,WNW,288,0.0,0.0,96,0.00,,---,0.00,VWS V15.00,2017-02-20 12:29:00,
2017-02-20 07:34:00,35.6,34.6,30.35,WNW,288,0.0,0.0,96,0.00,,---,0.00,VWS V15.00,2017-02-20 12:34:00,
2017-02-20 07:39:00,35.6,34.6,30.35,WNW,288,0.0,0.0,96,0.00,,---,0.00,VWS V15.00,2017-02-20 12:39:00,
2017-02-20 07:44:00,35.6,34.6,30.35,WNW,288,0.0,0.0,96,0.00,,---,0.00,VWS V15.00,2017-02-20 12:44:00,
2017-02-20 07:49:00,35.6,34.6,30.35,WNW,288,0.0,0.0,96,0.00,,---,0.00,VWS V15.00,2017-02-20 12:49:00,
2017-02-20 07:54:00,35.7,34.9,30.35,WNW,288,0.0,0.0,97,0.00,,---,0.00,VWS V15.00,2017-02-20 12:54:00,
2017-02-20 07:59:00,35.8,35.0,30.35,WNW,288,0.0,0.0,97,0.00,,---,0.00,VWS V15.00,2017-02-20 12:59:00,
2017-02-20 08:04:00,36.0,35.2,30.35,WNW,288,0.0,0.0,97,0.00,,---,0.00,VWS V15.00,2017-02-20 13:04:00,
2017-02-20 08:09:00,36.1,35.3,30.36,WNW,288,0.0,0.0,97,0.00,,---,0.00,VWS V15.00,2017-02-20 13:09:00,
2017-02-20 08:14:00,36.4,35.6,30.36,WNW,288,0.0,0.0,97,0.00,,---,0.00,VWS V15.00,2017-02-20 13:14:00,
2017-02-20 08:19:00,36.9,36.1,30.36,WNW,288,0.0,0.0,97,0.00,,---,0.00,VWS V15.00,2017-02-20 13:19:00,
2017-02-20 08:24:00,37.5,36.7,30.36,WNW,288,0.0,0.0,97,0.00,,---,0.00,VWS V15.00,2017-02-20 13:24:00,
2017-02-20 08:29:00,37.9,37.1,30.36,WNW,288,0.0,0.0,97,0.00,,---,0.00,VWS V15.00,2017-02-20 13:29:00,
2017-02-20 08:34:00,38.4,37.6,30.36,WNW,288,0.0,0.0,97,0.00,,---,0.00,VWS V15.00,2017-02-20 13:34:00,
2017-02-20 08:50:00,39.9,39.1,30.36,NE,55,0.0,0.0,97,0.00,,---,0.00,VWS V15.00,2017-02-20 13:50:00,
2017-02-20 08:55:00,40.2,39.4,30.36,NE,48,0.0,0.0,97,0.00,,---,0.00,VWS V15.00,2017-02-20 13:55:00,
2017-02-20 09:00:00,40.5,39.7,30.36,NE,48,0.0,0.0,97,0.00,,---,0.00,VWS V15.00,2017-02-20 14:00:00,
2017-02-20 09:05:00,40.6,39.8,30.35,East,82,1.0,1.0,97,0.00,,---,0.00,VWS V15.00,2017-02-20 14:05:00,
2017-02-20 09:10:00,40.7,39.9,30.36,East,82,0.0,3.0,97,0.00,,---,0.00,VWS V15.00,2017-02-20 14:10:00,
2017-02-20 09:15:00,40.8,40.0,30.36,East,82,0.0,3.0,97,0.00,,---,0.00,VWS V15.00,2017-02-20 14:15:00,
2017-02-20 09:20:00,41.1,40.3,30.36,East,84,0.0,3.0,97,0.00,,---,0.00,VWS V15.00,2017-02-20 14:20:00,
2017-02-20 09:25:00,41.6,40.8,30.36,SE,135,1.0,3.0,97,0.00,,---,0.00,VWS V15.00,2017-02-20 14:25:00,
2017-02-20 09:30:00,42.0,41.2,30.36,ENE,63,0.0,3.0,97,0.00,,---,0.00,VWS V15.00,2017-02-20 14:30:00,
2017-02-20 09:35:00,42.5,41.7,30.36,East,85,1.0,3.0,97,0.00,,---,0.00,VWS V15.00,2017-02-20 14:35:00,
2017-02-20 09:40:00,43.0,42.2,30.36,ENE,78,0.0,2.0,97,0.00,,---,0.00,VWS V15.00,2017-02-20 14:40:00,
2017-02-20 09:45:00,43.6,42.8,30.36,East,80,0.0,2.0,97,0.00,,---,0.00,VWS V15.00,2017-02-20 14:45:00,
2017-02-20 09:50:00,44.3,43.5,30.35,ENE,69,2.0,3.0,97,0.00,,---,0.00,VWS V15.00,2017-02-20 14:50:00,
2017-02-20 09:55:00,45.0,44.2,30.35,ENE,76,1.0,3.0,97,0.00,,---,0.00,VWS V15.00,2017-02-20 14:55:00,
2017-02-20 10:00:00,45.2,44.4,30.35,ESE,115,1.0,5.0,97,0.00,,---,0.00,VWS V15.00,2017-02-20 15:00:00,
2017-02-20 10:05:00,45.7,44.9,30.35,ESE,113,1.0,5.0,97,0.00,,---,0.00,VWS V15.00,2017-02-20 15:05:00,
2017-02-20 10:10:00,46.5,45.7,30.34,East,84,1.0,4.0,97,0.00,,---,0.00,VWS V15.00,2017-02-20 15:10:00,
2017-02-20 10:15:00,46.7,45.9,30.34,ESE,119,1.0,7.0,97,0.00,,---,0.00,VWS V15.00,2017-02-20 15:15:00,
2017-02-20 10:20:00,47.3,46.5,30.34,East,90,2.0,7.0,97,0.00,,---,0.00,VWS V15.00,2017-02-20 15:20:00,
2017-02-20 10:25:00,48.0,47.2,30.34,North,360,1.0,7.0,97,0.00,,---,0.00,VWS V15.00,2017-02-20 15:25:00,
2017-02-20 10:30:00,48.2,47.4,30.34,East,90,2.0,7.0,97,0.00,,---,0.00,VWS V15.00,2017-02-20 15:30:00,
2017-02-20 10:35:00,48.6,47.8,30.34,East,85,2.0,7.0,97,0.00,,---,0.00,VWS V15.00,2017-02-20 15:35:00,
2017-02-20 10:40:00,49.4,48.6,30.34,East,92,3.0,6.0,97,0.00,,---,0.00,VWS V15.00,2017-02-20 15:40:00,
2017-02-20 10:45:00,50.3,48.9,30.34,East,85,2.0,6.0,95,0.00,,---,0.00,VWS V15.00,2017-02-20 15:45:00,
2017-02-20 10:50:00,51.1,48.9,30.34,SE,146,1.0,6.0,92,0.00,,---,0.00,VWS V15.00,2017-02-20 15:50:00,
2017-02-20 10:54:00,51.9,49.1,30.33,East,84,1.0,7.0,90,0.00,,---,0.00,VWS V15.00,2017-02-20 15:54:00,
2017-02-20 10:59:00,52.8,49.3,30.34,East,101,3.0,7.0,88,0.00,,---,0.00,VWS V15.00,2017-02-20 15:59:00,
2017-02-20 11:04:00,53.3,49.5,30.34,SE,139,4.0,7.0,87,0.00,,---,0.00,VWS V15.00,2017-02-20 16:04:00,
2017-02-20 11:09:00,53.9,49.8,30.34,ESE,121,2.0,5.0,86,0.00,,---,0.00,VWS V15.00,2017-02-20 16:09:00,
2017-02-20 11:14:00,54.4,49.7,30.34,ENE,72,1.0,6.0,84,0.00,,---,0.00,VWS V15.00,2017-02-20 16:14:00,
2017-02-20 11:19:00,54.9,50.2,30.34,East,92,3.0,6.0,84,0.00,,---,0.00,VWS V15.00,2017-02-20 16:19:00,
2017-02-20 11:24:00,55.4,50.3,30.34,ENE,69,3.0,6.0,83,0.00,,---,0.00,VWS V15.00,2017-02-20 16:24:00,
2017-02-20 11:29:00,55.6,49.9,30.34,ESE,112,2.0,6.0,81,0.00,,---,0.00,VWS V15.00,2017-02-20 16:29:00,
2017-02-20 11:30:00,55.6,50.2,30.34,ESE,121,2.0,6.0,82,0.00,,---,0.00,VWS V15.00,2017-02-20 16:30:00,
2017-02-20 11:35:00,55.9,50.2,30.35,SE,130,2.0,6.0,81,0.00,,---,0.00,VWS V15.00,2017-02-20 16:35:00,
2017-02-20 11:40:00,56.4,50.7,30.35,South,172,2.0,3.0,81,0.00,,---,0.00,VWS V15.00,2017-02-20 16:40:00,
2017-02-20 11:45:00,56.7,49.9,30.35,NE,42,2.0,5.0,78,0.00,,---,0.00,VWS V15.00,2017-02-20 16:45:00,
2017-02-20 11:50:00,57.1,50.7,30.34,NNE,20,2.0,5.0,79,0.00,,---,0.00,VWS V15.00,2017-02-20 16:50:00,
2017-02-20 11:55:00,57.5,50.7,30.34,East,89,4.0,6.0,78,0.00,,---,0.00,VWS V15.00,2017-02-20 16:55:00,
2017-02-20 12:00:00,57.9,50.7,30.34,ENE,68,4.0,6.0,77,0.00,,---,0.00,VWS V15.00,2017-02-20 17:00:00,
2017-02-20 12:05:00,58.3,50.4,30.33,SE,144,4.0,6.0,75,0.00,,---,0.00,VWS V15.00,2017-02-20 17:05:00,
2017-02-20 12:10:00,58.7,50.5,30.33,North,5,2.0,4.0,74,0.00,,---,0.00,VWS V15.00,2017-02-20 17:10:00,
2017-02-20 12:15:00,59.3,51.0,30.33,North,5,2.0,4.0,74,0.00,,---,0.00,VWS V15.00,2017-02-20 17:15:00,
2017-02-20 12:20:00,59.5,51.2,30.32,SE,138,0.0,4.0,74,0.00,,---,0.00,VWS V15.00,2017-02-20 17:20:00,
2017-02-20 12:25:00,60.5,51.8,30.32,NNE,17,2.0,4.0,73,0.00,,---,0.00,VWS V15.00,2017-02-20 17:25:00,
2017-02-20 12:30:00,60.8,51.7,30.32,NNE,24,1.0,6.0,72,0.00,,---,0.00,VWS V15.00,2017-02-20 17:30:00,
2017-02-20 12:35:00,60.9,51.1,30.32,East,80,2.0,6.0,70,0.00,,---,0.00,VWS V15.00,2017-02-20 17:35:00,
2017-02-20 12:40:00,61.2,51.3,30.31,East,88,4.0,6.0,70,0.00,,---,0.00,VWS V15.00,2017-02-20 17:40:00,
2017-02-20 12:45:00,61.4,50.8,30.31,SE,141,3.0,6.0,68,0.00,,---,0.00,VWS V15.00,2017-02-20 17:45:00,
2017-02-20 12:50:00,61.6,51.0,30.31,NNE,20,3.0,8.0,68,0.00,,---,0.00,VWS V15.00,2017-02-20 17:50:00,
2017-02-20 12:55:00,62.1,51.8,30.31,North,360,2.0,8.0,69,0.00,,---,0.00,VWS V15.00,2017-02-20 17:55:00,
2017-02-20 13:00:00,62.6,51.1,30.31,North,9,3.0,8.0,66,0.00,,---,0.00,VWS V15.00,2017-02-20 18:00:00,
2017-02-20 13:05:00,62.7,50.8,30.31,ENE,76,0.0,8.0,65,0.00,,---,0.00,VWS V15.00,2017-02-20 18:05:00,
2017-02-20 13:10:00,62.9,51.4,30.31,NE,40,1.0,3.0,66,0.00,,---,0.00,VWS V15.00,2017-02-20 18:10:00,
2017-02-20 13:15:00,63.2,51.2,30.30,ENE,60,2.0,5.0,65,0.00,,---,0.00,VWS V15.00,2017-02-20 18:15:00,
2017-02-20 13:20:00,63.5,50.7,30.30,SE,131,5.0,7.0,63,0.00,,---,0.00,VWS V15.00,2017-02-20 18:20:00,
2017-02-20 13:25:00,63.1,50.3,30.30,East,88,4.0,7.0,63,0.00,,---,0.00,VWS V15.00,2017-02-20 18:25:00,
2017-02-20 13:30:00,62.7,50.4,30.30,ENE,77,3.0,7.0,64,0.00,,---,0.00,VWS V15.00,2017-02-20 18:30:00,
2017-02-20 13:35:00,62.4,50.5,30.30,ENE,76,2.0,7.0,65,0.00,,---,0.00,VWS V15.00,2017-02-20 18:35:00,
2017-02-20 13:40:00,62.4,50.9,30.30,SSE,148,3.0,3.0,66,0.00,,---,0.00,VWS V15.00,2017-02-20 18:40:00,
2017-02-20 13:45:00,62.3,50.8,30.29,South,177,1.0,5.0,66,0.00,,---,0.00,VWS V15.00,2017-02-20 18:45:00,
2017-02-20 13:50:00,62.5,51.0,30.29,SSE,155,3.0,7.0,66,0.00,,---,0.00,VWS V15.00,2017-02-20 18:50:00,
2017-02-20 13:55:00,62.5,51.0,30.29,SE,129,1.0,7.0,66,0.00,,---,0.00,VWS V15.00,2017-02-20 18:55:00,
2017-02-20 14:00:00,62.5,51.4,30.29,SSW,192,1.0,7.0,67,0.00,,---,0.00,VWS V15.00,2017-02-20 19:00:00,
2017-02-20 14:05:00,62.6,50.7,30.29,South,173,1.0,7.0,65,0.00,,---,0.00,VWS V15.00,2017-02-20 19:05:00,
2017-02-20 14:10:00,62.3,50.8,30.29,SE,128,3.0,4.0,66,0.00,,---,0.00,VWS V15.00,2017-02-20 19:10:00,
2017-02-20 14:15:00,62.1,50.6,30.28,East,90,4.0,4.0,66,0.00,,---,0.00,VWS V15.00,2017-02-20 19:15:00,
2017-02-20 14:20:00,62.1,50.6,30.28,SSE,159,5.0,7.0,66,0.00,,---,0.00,VWS V15.00,2017-02-20 19:20:00,
2017-02-20 14:25:00,62.1,50.6,30.28,ESE,104,3.0,7.0,66,0.00,,---,0.00,VWS V15.00,2017-02-20 19:25:00,
2017-02-20 14:30:00,62.0,50.1,30.27,SE,129,3.0,7.0,65,0.00,,---,0.00,VWS V15.00,2017-02-20 19:30:00,
2017-02-20 14:35:00,62.0,50.9,30.28,South,180,3.0,7.0,67,0.00,,---,0.00,VWS V15.00,2017-02-20 19:35:00,
2017-02-20 14:40:00,62.0,50.5,30.27,ESE,115,2.0,3.0,66,0.00,,---,0.00,VWS V15.00,2017-02-20 19:40:00,
2017-02-20 14:45:00,62.4,50.9,30.27,East,84,1.0,5.0,66,0.00,,---,0.00,VWS V15.00,2017-02-20 19:45:00,
2017-02-20 14:50:00,62.9,50.1,30.27,ESE,105,2.0,7.0,63,0.00,,---,0.00,VWS V15.00,2017-02-20 19:50:00,
2017-02-20 14:55:00,63.1,50.3,30.27,ENE,76,7.0,8.0,63,0.00,,---,0.00,VWS V15.00,2017-02-20 19:55:00,
2017-02-20 15:00:00,63.3,50.5,30.27,East,87,2.0,8.0,63,0.00,,---,0.00,VWS V15.00,2017-02-20 20:00:00,
2017-02-20 15:05:00,63.5,50.3,30.27,SE,125,3.0,8.0,62,0.00,,---,0.00,VWS V15.00,2017-02-20 20:05:00,
2017-02-20 15:10:00,63.4,50.2,30.26,SSE,150,1.0,5.0,62,0.00,,---,0.00,VWS V15.00,2017-02-20 20:10:00,
2017-02-20 15:58:00,64.5,49.9,30.25,East,87,4.0,5.0,59,0.00,,---,0.00,VWS V15.00,2017-02-20 20:58:00,
2017-02-20 16:03:00,64.6,50.0,30.24,ESE,115,0.0,5.0,59,0.00,,---,0.00,VWS V15.00,2017-02-20 21:03:00,
2017-02-20 16:08:00,64.6,49.5,30.24,ESE,105,2.0,4.0,58,0.00,,---,0.00,VWS V15.00,2017-02-20 21:08:00,
2017-02-20 16:13:00,64.6,50.0,30.24,East,86,1.0,5.0,59,0.00,,---,0.00,VWS V15.00,2017-02-20 21:13:00,
2017-02-20 16:18:00,64.7,49.6,30.23,ENE,77,3.0,7.0,58,0.00,,---,0.00,VWS V15.00,2017-02-20 21:18:00,
2017-02-20 16:23:00,64.4,49.3,30.23,East,98,3.0,7.0,58,0.00,,---,0.00,VWS V15.00,2017-02-20 21:23:00,
2017-02-20 16:28:00,64.3,49.7,30.23,ESE,106,3.0,7.0,59,0.00,,---,0.00,VWS V15.00,2017-02-20 21:28:00,
2017-02-20 16:33:00,64.2,49.6,30.23,SE,129,3.0,7.0,59,0.00,,---,0.00,VWS V15.00,2017-02-20 21:33:00,
2017-02-20 16:38:00,64.1,49.5,30.23,ESE,114,2.0,5.0,59,0.00,,---,0.00,VWS V15.00,2017-02-20 21:38:00,
2017-02-20 16:43:00,63.9,49.3,30.23,East,89,1.0,5.0,59,0.00,,---,0.00,VWS V15.00,2017-02-20 21:43:00,
2017-02-20 16:48:00,63.8,49.2,30.24,ENE,70,0.0,5.0,59,0.00,,---,0.00,VWS V15.00,2017-02-20 21:48:00,
2017-02-20 16:53:00,63.7,49.1,30.24,East,100,2.0,5.0,59,0.00,,---,0.00,VWS V15.00,2017-02-20 21:53:00,
2017-02-20 16:58:00,63.4,48.8,30.24,SE,138,4.0,6.0,59,0.00,,---,0.00,VWS V15.00,2017-02-20 21:58:00,
2017-02-20 17:03:00,63.1,48.6,30.23,SE,130,1.0,7.0,59,0.00,,---,0.00,VWS V15.00,2017-02-20 22:03:00,
2017-02-20 17:08:00,62.9,48.8,30.24,ESE,111,2.0,3.0,60,0.00,,---,0.00,VWS V15.00,2017-02-20 22:08:00,
2017-02-20 17:13:00,62.7,48.6,30.24,ESE,107,2.0,6.0,60,0.00,,---,0.00,VWS V15.00,2017-02-20 22:13:00,
2017-02-20 17:18:00,62.6,48.5,30.24,East,95,4.0,6.0,60,0.00,,---,0.00,VWS V15.00,2017-02-20 22:18:00,
2017-02-20 17:23:00,62.6,48.5,30.24,NE,44,2.0,6.0,60,0.00,,---,0.00,VWS V15.00,2017-02-20 22:23:00,
2017-02-20 17:28:00,62.6,49.0,30.24,ESE,115,4.0,6.0,61,0.00,,---,0.00,VWS V15.00,2017-02-20 22:28:00,
2017-02-20 17:33:00,62.6,48.5,30.24,ENE,76,0.0,6.0,60,0.00,,---,0.00,VWS V15.00,2017-02-20 22:33:00,
2017-02-20 17:38:00,62.6,48.5,30.25,East,96,2.0,2.0,60,0.00,,---,0.00,VWS V15.00,2017-02-20 22:38:00,
2017-02-20 17:43:00,62.5,48.0,30.24,ESE,107,0.0,4.0,59,0.00,,---,0.00,VWS V15.00,2017-02-20 22:43:00,
2017-02-20 17:48:00,62.5,48.0,30.25,ESE,111,0.0,4.0,59,0.00,,---,0.00,VWS V15.00,2017-02-20 22:48:00,